• In Russia
  • List of Countries
  • For 7 days
  • Water Temperature
  • Satellite Maps
  • Weather Map
  • Weather Widgets
  • user-avatar
    Login

    Hourly Weather Kalgoorlie

    Today, 23 February, Friday

    Time Temperature Precipitation Wind Pressure Humidity
    00:00 +28°C° 0 mm 3 mps 725 mmHg 53%
    01:00 +27°C° 0 mm 3 mps 725 mmHg 56%
    02:00 +26°C° 0 mm 3 mps 725 mmHg 59%
    03:00 +26°C° 0 mm 4 mps 725 mmHg 62%
    04:00 +25°C° 0 mm 4 mps 725 mmHg 64%
    05:00 +25°C° 0 mm 4 mps 725 mmHg 67%
    06:00 +26°C° 0 mm 4 mps 726 mmHg 64%
    07:00 +27°C° 0 mm 5 mps 726 mmHg 61%
    08:00 +28°C° 0 mm 5 mps 726 mmHg 57%
    09:00 +29°C° 0 mm 5 mps 726 mmHg 50%
    10:00 +32°C° 0 mm 4 mps 726 mmHg 43%
    11:00 +34°C° 0 mm 4 mps 726 mmHg 35%
    12:00 +34°C° 0 mm 3 mps 726 mmHg 33%
    13:00 +35°C° 0 mm 3 mps 726 mmHg 32%
    14:00 +35°C° 0 mm 2 mps 726 mmHg 30%
    15:00 +35°C° 0 mm 2 mps 726 mmHg 30%
    16:00 +34°C° 0 mm 2 mps 726 mmHg 30%
    17:00 +34°C° 0 mm 2 mps 726 mmHg 30%
    18:00 +34°C° 0 mm 3 mps 726 mmHg 32%
    19:00 +33°C° 0 mm 4 mps 726 mmHg 33%
    20:00 +32°C° 0 mm 5 mps 727 mmHg 34%
    21:00 +29°C° 0 mm 7 mps 727 mmHg 44%
    22:00 +27°C° 0 mm 8 mps 728 mmHg 54%
    23:00 +24°C° 0 mm 10 mps 728 mmHg 64%

    Tomorrow, 24 February, Saturday

    Time Temperature Precipitation Wind Pressure Humidity
    00:00 +23°C° 0.1 mm 10 mps 728 mmHg 67%
    01:00 +22°C° 0.1 mm 10 mps 728 mmHg 70%
    02:00 +22°C° 0.1 mm 9 mps 729 mmHg 73%
    03:00 +21°C° 0.3 mm 9 mps 729 mmHg 74%
    04:00 +21°C° 0.3 mm 9 mps 729 mmHg 75%
    05:00 +21°C° 0.3 mm 9 mps 730 mmHg 76%
    06:00 +21°C° 0 mm 9 mps 730 mmHg 75%
    07:00 +20°C° 0 mm 8 mps 731 mmHg 74%
    08:00 +20°C° 0 mm 8 mps 731 mmHg 74%
    09:00 +20°C° 0.1 mm 8 mps 731 mmHg 72%
    10:00 +20°C° 0.1 mm 7 mps 731 mmHg 71%
    11:00 +20°C° 0.1 mm 7 mps 731 mmHg 70%
    12:00 +21°C° 0.3 mm 6 mps 731 mmHg 69%
    13:00 +21°C° 0.3 mm 6 mps 731 mmHg 69%
    14:00 +21°C° 0.3 mm 6 mps 731 mmHg 68%
    15:00 +21°C° 0.3 mm 6 mps 730 mmHg 68%
    16:00 +21°C° 0.3 mm 6 mps 730 mmHg 67%
    17:00 +21°C° 0.3 mm 6 mps 730 mmHg 67%
    18:00 +21°C° 0.1 mm 6 mps 731 mmHg 64%
    19:00 +21°C° 0.1 mm 6 mps 731 mmHg 62%
    20:00 +21°C° 0.1 mm 6 mps 731 mmHg 60%
    21:00 +21°C° 0 mm 6 mps 731 mmHg 58%
    22:00 +21°C° 0 mm 7 mps 731 mmHg 56%
    23:00 +21°C° 0 mm 8 mps 731 mmHg 54%

    Day after tomorrow, 25 February, Sunday

    Time Temperature Precipitation Wind Pressure Humidity
    00:00 +20°C° 0 mm 8 mps 730 mmHg 58%
    01:00 +18°C° 0 mm 7 mps 730 mmHg 61%
    02:00 +17°C° 0 mm 7 mps 729 mmHg 64%
    03:00 +17°C° 0 mm 7 mps 729 mmHg 66%
    04:00 +17°C° 0 mm 7 mps 729 mmHg 67%
    05:00 +16°C° 0 mm 7 mps 729 mmHg 69%
    06:00 +17°C° 0.1 mm 7 mps 729 mmHg 67%
    07:00 +17°C° 0.1 mm 7 mps 729 mmHg 66%
    08:00 +17°C° 0.1 mm 7 mps 730 mmHg 64%
    09:00 +19°C° 0.3 mm 6 mps 729 mmHg 62%
    10:00 +20°C° 0.3 mm 6 mps 729 mmHg 59%
    11:00 +20°C° 0.3 mm 5 mps 729 mmHg 57%
    12:00 +20°C° 1.2 mm 6 mps 728 mmHg 61%
    13:00 +19°C° 1.2 mm 6 mps 728 mmHg 66%
    14:00 +19°C° 1.2 mm 6 mps 727 mmHg 70%
    15:00 +20°C° 0.2 mm 6 mps 727 mmHg 68%
    16:00 +20°C° 0.2 mm 5 mps 727 mmHg 66%
    17:00 +21°C° 0.2 mm 5 mps 727 mmHg 63%
    18:00 +21°C° 0 mm 5 mps 727 mmHg 65%
    19:00 +20°C° 0 mm 4 mps 727 mmHg 66%
    20:00 +20°C° 0 mm 4 mps 727 mmHg 67%
    21:00 +20°C° 0.3 mm 4 mps 727 mmHg 67%
    22:00 +20°C° 0.3 mm 3 mps 726 mmHg 68%
    23:00 +20°C° 0.3 mm 3 mps 726 mmHg 68%

    26 February, Monday

    Time Temperature Precipitation Wind Pressure Humidity
    00:00 +20°C° 0.5 mm 4 mps 726 mmHg 68%
    01:00 +20°C° 0.5 mm 4 mps 725 mmHg 68%
    02:00 +20°C° 0.5 mm 4 mps 725 mmHg 67%
    03:00 +20°C° 1.3 mm 4 mps 724 mmHg 69%
    04:00 +20°C° 1.3 mm 4 mps 724 mmHg 70%
    05:00 +20°C° 1.3 mm 4 mps 724 mmHg 71%
    06:00 +20°C° 0.4 mm 4 mps 724 mmHg 68%
    07:00 +21°C° 0.4 mm 5 mps 724 mmHg 64%
    08:00 +21°C° 0.4 mm 5 mps 725 mmHg 61%
    09:00 +23°C° 0.1 mm 5 mps 724 mmHg 55%
    10:00 +24°C° 0.1 mm 6 mps 724 mmHg 50%
    11:00 +27°C° 0.1 mm 7 mps 724 mmHg 44%
    12:00 +29°C° 0.2 mm 7 mps 724 mmHg 42%
    13:00 +32°C° 0.2 mm 6 mps 723 mmHg 40%
    14:00 +34°C° 0.2 mm 6 mps 722 mmHg 38%
    15:00 +34°C° 0 mm 5 mps 722 mmHg 37%
    16:00 +34°C° 0 mm 5 mps 722 mmHg 37%
    17:00 +34°C° 0 mm 4 mps 722 mmHg 36%
    18:00 +33°C° 0.2 mm 4 mps 722 mmHg 42%
    19:00 +30°C° 0.2 mm 5 mps 723 mmHg 49%
    20:00 +28°C° 0.2 mm 6 mps 723 mmHg 55%
    21:00 +27°C° 3 mm 5 mps 724 mmHg 63%
    22:00 +26°C° 3 mm 5 mps 724 mmHg 71%
    23:00 +25°C° 3 mm 4 mps 724 mmHg 79%

    27 February, Tuesday

    Time Temperature Precipitation Wind Pressure Humidity
    00:00 +23°C° 0 mm 4 mps 724 mmHg 81%
    01:00 +23°C° 0 mm 5 mps 724 mmHg 83%
    02:00 +22°C° 0 mm 5 mps 724 mmHg 85%
    03:00 +21°C° 0 mm 6 mps 724 mmHg 84%
    04:00 +21°C° 0 mm 6 mps 725 mmHg 82%
    05:00 +20°C° 0 mm 7 mps 725 mmHg 81%
    06:00 +20°C° 0 mm 7 mps 726 mmHg 78%
    07:00 +20°C° 0 mm 7 mps 727 mmHg 76%
    08:00 +20°C° 0 mm 7 mps 728 mmHg 73%
    09:00 +21°C° 0 mm 7 mps 728 mmHg 67%
    10:00 +22°C° 0 mm 6 mps 728 mmHg 61%
    11:00 +23°C° 0 mm 6 mps 729 mmHg 54%
    12:00 +26°C° 0 mm 6 mps 728 mmHg 50%
    13:00 +27°C° 0 mm 5 mps 728 mmHg 46%
    14:00 +28°C° 0 mm 5 mps 728 mmHg 41%
    15:00 +28°C° 0 mm 5 mps 728 mmHg 40%
    16:00 +28°C° 0 mm 5 mps 728 mmHg 38%
    17:00 +28°C° 0 mm 5 mps 728 mmHg 36%
    18:00 +27°C° 0 mm 5 mps 729 mmHg 37%
    19:00 +26°C° 0 mm 6 mps 729 mmHg 39%
    20:00 +24°C° 0 mm 6 mps 730 mmHg 40%
    21:00 +23°C° 0 mm 7 mps 730 mmHg 44%
    22:00 +21°C° 0 mm 8 mps 730 mmHg 47%
    23:00 +19°C° 0 mm 9 mps 730 mmHg 51%

    28 February, Wednesday

    Time Temperature Precipitation Wind Pressure Humidity
    00:00 +18°C° 0 mm 9 mps 730 mmHg 56%
    01:00 +17°C° 0 mm 8 mps 730 mmHg 61%
    02:00 +16°C° 0 mm 8 mps 730 mmHg 66%
    03:00 +16°C° 0 mm 7 mps 730 mmHg 67%
    04:00 +15°C° 0 mm 7 mps 730 mmHg 68%
    05:00 +15°C° 0 mm 6 mps 730 mmHg 70%
    06:00 +16°C° 0 mm 6 mps 731 mmHg 68%
    07:00 +16°C° 0 mm 6 mps 731 mmHg 66%
    08:00 +17°C° 0 mm 6 mps 732 mmHg 64%
    09:00 +20°C° 0 mm 6 mps 732 mmHg 57%
    10:00 +22°C° 0 mm 6 mps 731 mmHg 51%
    11:00 +24°C° 0 mm 6 mps 731 mmHg 45%
    12:00 +26°C° 0 mm 6 mps 730 mmHg 43%
    13:00 +27°C° 0 mm 5 mps 730 mmHg 41%
    14:00 +28°C° 0 mm 5 mps 729 mmHg 39%
    15:00 +28°C° 0 mm 5 mps 729 mmHg 39%
    16:00 +28°C° 0 mm 5 mps 729 mmHg 39%
    17:00 +29°C° 0 mm 5 mps 729 mmHg 39%
    18:00 +28°C° 0 mm 5 mps 729 mmHg 41%
    19:00 +26°C° 0 mm 5 mps 729 mmHg 43%
    20:00 +24°C° 0 mm 6 mps 729 mmHg 45%
    21:00 +24°C° 0 mm 6 mps 729 mmHg 46%
    22:00 +23°C° 0 mm 6 mps 729 mmHg 47%
    23:00 +23°C° 0 mm 6 mps 730 mmHg 47%
    Show more